Погода в Беркаките

Россия / Республика Саха (Якутия)     56°34′23″N   124°46′35″E
темп.,
°C
ветер,
м/с
пор.,
м/с
влажн.,
%
обл.,
%
осадки,
мм/ч
давл.,
гПа
погр.,
м
3 марта, ср
ср300:00−29юв3597100 0.0 1022162
03:00−29ююв2497100 0.0 1020124
06:00−30ююв2397100 0.0 102073
09:00−29ююв2497100 0.0 1019222
12:00−25ююв2492100 0.1 1017461
15:00−24юв2289100 0.1 1015495
18:00−28вюв1197100 0.0 101619
21:00−31зсз1110086 0.0 101919
4 марта, чт
чт400:00−31сз129996 0.0 102019
03:00−32сз229998 0.1 102220
06:00−32сз2398100 0.1 102442
09:00−30ссз3897100 0.1 1026398
12:00−28ссз61089100 0.0 1026983
15:00−28ссз71186100 0.1 10271147
18:00−30ссз41192100 0.0 1030950
21:00−30ссз51493100 0.1 1033983
5 марта, пт
пт500:00−31ссз51494100 0.1 1035968
03:00−30ссз71590100 0.1 10361014
06:00−31ссз61591100 0.1 1037965
09:00−31ссз61588100 0.1 1039924
12:00−27ссз7138490 0.0 1037932
15:00−25ссз5108390 0.0 1036984
18:00−27сз228893 0.0 103644
21:00−33з118675 0.0 103919
6 марта, сб
сб600:00−35з11790 0.0 103819
03:00−35юз11720 0.0 103819
06:00−35ююз11660 0.0 103719
09:00−29ююв11670 0.0 103629
12:00−21юв12700 0.0 1031284
15:00−18юв23770 0.0 1027329
18:00−22юв12862 0.0 102620
21:00−23ююв228422 0.0 102821
7 марта, вс
вс700:00−23юв2287100 0.0 102641
03:00−23юв128897 0.0 102630
06:00−24юв128698 0.0 102521
09:00−21юв118599 0.0 102580
12:00−15ююв118291 0.0 1023263
15:00−11св118887 0.0 1022367
18:00−14юв019595 0.2 102220
21:00−17юз229095 0.2 102420